Location: Borea
(45.6167°N, 23.0167°E)
Time: 21:21:44
(UTC+00:00)

ONEWEB-0679 - Visible Passes

Search period start: 27 February 2024 00:00
Search period end: 08 March 2024 00:00
Orbit: 1196 x 1199 km, 87.9° (Epoch: 27 February)

Date Brightness Start Highest point End Pass type
(mag) Time Alt. Az. Time Alt. Az. Time Alt. Az.
27 Feb ? 01:36:22 10° N 01:43:32 55° E 01:45:50 41° SE visible
27 Feb ? 03:26:27 10° NNW 03:32:36 31° WNW 03:35:12 24° WSW visible
28 Feb ? 01:19:07 10° N 01:26:07 46° E 01:27:48 40° ESE visible
28 Feb ? 03:08:53 10° NNW 03:15:24 37° WNW 03:17:11 32° WSW visible
29 Feb ? 01:01:57 10° NNE 01:08:40 38° E 01:09:56 36° E visible
29 Feb ? 02:51:24 10° NNW 02:58:12 44° W 02:59:20 42° WSW visible
01 Mar ? 00:44:48 10° NNE 00:51:11 32° ENE 00:52:10 31° E visible
01 Mar ? 02:33:56 10° N 02:40:59 54° W 02:41:35 52° W visible
02 Mar ? 00:27:44 10° NNE 00:33:41 26° ENE 00:34:29 26° E visible
02 Mar ? 02:16:31 10° N 02:23:43 65° W 02:23:53 64° W visible
02 Mar ? 04:09:17 10° NW 04:11:40 12° WNW 04:13:18 11° WNW visible
03 Mar ? 00:10:44 10° NNE 00:16:09 22° ENE 00:16:50 21° E visible
03 Mar ? 01:59:07 10° N 02:06:15 77° WNW 02:06:15 77° WNW visible
03 Mar ? 03:50:54 10° NW 03:54:37 15° WNW 03:55:40 14° WNW visible
03 Mar ? 23:53:52 10° NNE 23:58:34 18° ENE 23:59:15 18° ENE visible
04 Mar ? 01:41:46 10° N 01:48:40 81° N 01:48:40 81° N visible
04 Mar ? 03:32:56 10° NNW 03:37:33 18° WNW 03:38:05 18° WNW visible
04 Mar ? 23:37:13 10° NE 23:40:57 14° ENE 23:41:41 14° ENE visible
05 Mar ? 01:24:26 10° N 01:31:07 70° NE 01:31:07 70° NE visible
05 Mar ? 03:15:08 10° NNW 03:20:26 22° WNW 03:20:32 22° WNW visible
05 Mar ? 23:21:04 10° NE 23:23:19 11° ENE 23:24:10 11° ENE visible
06 Mar ? 01:07:09 10° N 01:13:35 59° NE 01:13:35 59° NE visible
06 Mar ? 02:57:28 10° NNW 03:03:00 27° WNW 03:03:00 27° WNW visible
07 Mar ? 00:49:54 10° N 00:56:05 49° ENE 00:56:05 49° ENE visible
07 Mar ? 02:39:53 10° NNW 02:45:31 32° WNW 02:45:31 32° WNW visible
